Flag for Germany Weather past 2 weeks in Hückelhoven, North Rhine-Westphalia, Germany

Now
34 °F

Clear.


Feels Like: 24 °F
Forecast: 15 / 28 °F
Wind: 15 mph from Northeast

Location: Monchengladbach Airport

Current Time: Dec 27, 2014 at 8:28:38 PM

Latest Report: Dec 27, 2014 at 7:50 PM


Visibility: 10 mi

Pressure: 29.56 "Hg

Humidity: 75%

Dew point: 27 °F

Location of HückelhovenLocation

Historic Weather in Hückelhoven — Graph

°F

Hückelhoven temperature yesterday

Maximum temperature yesterday: 41 °F (at 1:20 PM)
Minimum temperature yesterday: 36 °F (at 9:20 AM)
Average temperature yesterday: 39 °F

Past Weeks' High & Low Weather Summary

 TemperatureHumidityPressure
High55 °F (Dec 18, 12:20 PM)100% (Dec 13, 7:50 AM)30.39 "Hg (Dec 13, 7:50 AM)
Low30 °F (Dec 14, 7:50 AM)71% (Dec 14, 1:50 PM)29.42 "Hg (Dec 27, 9:20 AM)
Average45 °F89%29.94 "Hg
* Reported Dec 12 7:20 PM — Dec 27 7:20 PM, Hückelhoven, Weather by CustomWeather, © 2014

Note: Actual official high and low records may vary slightly from our data, if they occured in-between our weather recording intervals... More about our weather records

Advertising

Hückelhoven weather history for previous 24 hours

 ConditionsComfort  
Time TempWeatherWind HumidityBarometerVisibility
7:20 PM
Dec 27
34 °FPassing clouds.16 mph81%29.53 "HgN/A
6:50 PM34 °FPassing clouds.14 mph87%29.53 "HgN/A
6:20 PM34 °FLight snow. Partly cloudy.13 mph93%29.50 "HgN/A
5:50 PM34 °FPartly cloudy.12 mph93%29.50 "HgN/A
5:20 PM34 °FPassing clouds.10 mph100%29.47 "HgN/A
4:50 PM34 °FPassing clouds.9 mph100%29.45 "HgN/A
4:20 PM34 °FPassing clouds.9 mph100%29.45 "Hg5 mi
3:50 PM34 °FPartly cloudy.7 mph100%29.45 "Hg4 mi
3:20 PM34 °FLight snow. Fog.8 mph100%29.42 "Hg2 mi
2:50 PM34 °FLight snow. Fog.7 mph93%29.42 "Hg1 mi
2:20 PM34 °FLight rain. Passing clouds.8 mph93%29.42 "Hg1 mi
1:50 PM34 °FLight rain. Passing clouds.10 mph100%29.42 "Hg1 mi
1:20 PM34 °FLight rain. Passing clouds.12 mph100%29.42 "Hg1 mi
12:50 PM34 °FLight rain. Passing clouds.15 mph100%29.42 "Hg2 mi
12:20 PM34 °FLight rain. Passing clouds.16 mph100%29.42 "Hg2 mi
11:50 AM34 °FLight rain. Passing clouds.18 mph100%29.42 "Hg2 mi
11:20 AM34 °FLight rain. Passing clouds.18 mph100%29.42 "Hg2 mi
10:50 AM34 °FLight rain. Passing clouds.18 mph100%29.42 "Hg2 mi
10:20 AM34 °FLight rain. Passing clouds.21 mph100%29.42 "Hg2 mi
9:50 AM34 °FLight rain. Fog.18 mph93%29.42 "Hg1 mi
9:20 AM34 °FLight snow. Fog.17 mph93%29.42 "Hg1 mi
8:50 AM34 °FLow clouds.20 mph93%29.45 "Hg1 mi
8:20 AM34 °FLow clouds.21 mph100%29.45 "Hg1 mi
7:50 AM32 °FSnow. Passing clouds.21 mph100%29.45 "Hg1 mi
Weather by CustomWeather, © 2014

See weather overviewHow to use our weather pages